Main page


Airports :

Qazvin, Iran

Qazvin Airport

latitude: 36-15N, longitude: 050-00E, elevation: 1278 m

Current weather observation

The report was made 1 hour and 1 minutes ago, at 09:00 UTC
Wind 6 kt from the North with gusts up to 14 kt
Temperature 14°C
Humidity 41%
Pressure 1015 hPa
Visibility 10 km or more
Few clouds at a height of 2500 ft

METAR: OIIK 180900Z 35006G14KT 9999 FEW025 14/01 Q1015

Time: 13:31 (10:01 UTC)

TAF: missing

Weather observations and forecasts of more than 4000 airports (METAR and TAF reports).

The available stations are represented by yellow and red dots on the map.

Hover mouse over dot to see the name of the station.

Then click to see weather observations and forecasts.

To change the map : click on the green buttons with a black cross to zoom in, on the green button with a dash to zoom out, or on the green arrows for adjacent maps.